Hutchinson, MN

3:35 PM CDT on July 27, 2016 (GMT -0500)
Hutchinson Municipal-Butler

Weather History for KHCD - December, 2013

Change the Weather History Date:

Friday, December 6, 2013

  Actual Average Record
Temperature  
Mean Temperature -6 °F -  
Max Temperature 0 °F 29 °F 49 °F (1963)
Min Temperature -11 °F 9 °F -18 °F (1972)
Degree Days  
Heating Degree Days 70    
Moisture  
Dew Point -11 °F    
Average Humidity 78    
Maximum Humidity 82    
Minimum Humidity 70    
Precipitation  
Precipitation 0.00 in - - ()
Sea Level Pressure  
Sea Level Pressure 30.48 in    
Wind  
Wind Speed - (North)    
Max Wind Speed -    
Max Gust Speed -    
Visibility 10 miles    
Events      
Averages and records for this station are not official NWS values.
T = Trace of Precipitation, MM = Missing Value Source: NWS Daily Summary

Daily Weather History Graph

Daily Weather History Graph

Search for Another Location

Airport or City:

Trip Planner

Search our weather history database for the weather conditions in past years. The results will help you decide how hot, cold, wet, or windy it might be!

Date:

Astronomy

Dec. 06, 2013 Rise Set
Actual Time 7:40 AM CST 4:36 PM CST
Civil Twilight 7:07 AM CST 5:09 PM CST
Nautical Twilight 6:30 AM CST 5:46 PM CST
Astronomical Twilight 5:55 AM CST 6:22 PM CST
Moon 10:40 AM CST (12/6) 9:16 PM CST (12/6)
Length of Visible Light 10h 02m
Length of Day
8h 55m
Waxing Crescent, 19% of the Moon is Illuminated
Dec 6
Waxing Crescent
Dec 9
First Quarter
Dec 17
Full
Dec 25
Last Quarter
Jan 1
New

Hourly Weather History & Observations

Time (CST) Temp. Dew Point Humidity Pressure Visibility Wind Dir Wind Speed Gust Speed Precip Events Conditions
12:13 AM -4.5 °F -9.4 °F 80% 30.34 in 10.0 mi North - - N/A   Clear
12:34 AM -5.8 °F -10.3 °F 81% 30.34 in 10.0 mi North - - N/A   Clear
12:53 AM -5.4 °F -10.1 °F 80% 30.34 in 10.0 mi North - - N/A   Clear
1:13 AM -5.8 °F -10.3 °F 81% 30.33 in 10.0 mi North - - N/A   Clear
1:33 AM -5.4 °F -10.3 °F 80% 30.34 in 10.0 mi North - - N/A   Clear
1:53 AM -6.7 °F -11.2 °F 81% 30.34 in 10.0 mi North - - N/A   Clear
2:13 AM -6.7 °F -11.2 °F 81% 30.34 in 10.0 mi North - - N/A   Clear
2:33 AM -6.9 °F -11.4 °F 81% 30.35 in 10.0 mi North - - N/A   Clear
2:53 AM -6.7 °F -11.4 °F 80% 30.35 in 10.0 mi North - - N/A   Clear
3:13 AM -6.9 °F -11.7 °F 79% 30.35 in 10.0 mi North - - N/A   Clear
3:33 AM -7.2 °F -12.1 °F 79% 30.35 in 10.0 mi North - - N/A   Clear
3:53 AM -7.4 °F -12.3 °F 79% 30.35 in 10.0 mi North - - N/A   Clear
4:13 AM -7.2 °F -12.1 °F 79% 30.35 in 10.0 mi North - - N/A   Clear
4:33 AM -7.6 °F -12.3 °F 80% 30.36 in 10.0 mi North - - N/A   Clear
4:53 AM -8.0 °F -12.6 °F 80% 30.37 in 10.0 mi North - - N/A   Clear
5:13 AM -8.0 °F -12.6 °F 80% 30.38 in 10.0 mi North - - N/A   Clear
5:33 AM -8.1 °F -12.8 °F 80% 30.38 in 10.0 mi North - - N/A   Clear
5:53 AM -8.5 °F -13.0 °F 81% 30.39 in 10.0 mi North - - N/A   Clear
6:13 AM -8.1 °F -13.0 °F 79% 30.39 in 10.0 mi North - - N/A   Clear
6:33 AM -8.5 °F -13.0 °F 81% 30.41 in 10.0 mi North - - N/A   Clear
6:53 AM -8.5 °F -13.0 °F 81% 30.41 in 10.0 mi North - - N/A   Clear
7:14 AM -9.0 °F -13.7 °F 80% 30.43 in 10.0 mi North - - N/A   Clear
7:33 AM -9.0 °F -13.5 °F 81% 30.43 in 10.0 mi North - - N/A   Clear
7:53 AM -8.9 °F -13.5 °F 80% 30.43 in 10.0 mi North - - N/A   Clear
8:13 AM -8.7 °F -13.2 °F 81% 30.45 in 10.0 mi North - - N/A   Clear
8:33 AM -8.1 °F -13.0 °F 79% 30.45 in 10.0 mi North - - N/A   Clear
8:53 AM -7.6 °F -12.5 °F 79% 30.46 in 10.0 mi North - - N/A   Clear
9:13 AM -6.7 °F -12.1 °F 77% 30.47 in 10.0 mi North - - N/A   Clear
9:33 AM -5.8 °F -11.2 °F 77% 30.47 in 10.0 mi North - - N/A   Clear
9:52 AM -5.1 °F -10.7 °F 77% 30.49 in 10.0 mi North - - N/A   Clear
10:13 AM -4.2 °F -10.1 °F 76% 30.49 in 10.0 mi North - - N/A   Clear
10:34 AM -3.5 °F -9.4 °F 76% 30.49 in 10.0 mi North - - N/A   Clear
10:53 AM -3.1 °F -9.4 °F 74% 30.50 in 10.0 mi North - - N/A   Clear
11:14 AM -2.2 °F -8.7 °F 74% 30.50 in 10.0 mi North - - N/A   Clear
11:33 AM -1.7 °F -8.3 °F 73% 30.49 in 10.0 mi North - - N/A   Clear
11:54 AM -1.3 °F -8.0 °F 73% 30.49 in 10.0 mi North - - N/A   Clear
12:13 PM -0.8 °F -7.6 °F 73% 30.49 in 10.0 mi North - - N/A   Clear
12:33 PM -0.4 °F -7.2 °F 73% 30.49 in 10.0 mi North - - N/A   Clear
12:53 PM -0.4 °F -7.2 °F 73% 30.49 in 10.0 mi North - - N/A   Clear
1:13 PM -0.0 °F -7.1 °F 72% 30.49 in 10.0 mi North - - N/A   Clear
1:33 PM -0.0 °F -7.2 °F 72% 30.48 in 10.0 mi North - - N/A   Clear
1:52 PM 0.3 °F -6.9 °F 72% 30.49 in 10.0 mi North - - N/A   Clear
2:13 PM 0.5 °F -6.9 °F 71% 30.49 in 10.0 mi North - - N/A   Clear
2:34 PM -0.0 °F -7.6 °F 70% 30.50 in 10.0 mi North - - N/A   Clear
2:53 PM -0.4 °F -7.6 °F 72% 30.50 in 10.0 mi North - - N/A   Clear
3:13 PM -0.4 °F -7.6 °F 72% 30.50 in 10.0 mi North - - N/A   Clear
3:33 PM -0.6 °F -7.6 °F 72% 30.51 in 10.0 mi North - - N/A   Clear
3:53 PM -0.9 °F -7.8 °F 73% 30.51 in 10.0 mi North - - N/A   Clear
4:14 PM -1.8 °F -8.1 °F 75% 30.51 in 10.0 mi North - - N/A   Clear
4:33 PM -2.2 °F -8.5 °F 75% 30.52 in 10.0 mi North - - N/A   Clear
4:53 PM -2.7 °F -8.7 °F 76% 30.52 in 10.0 mi North - - N/A   Clear
5:13 PM -3.3 °F -9.0 °F 76% 30.52 in 10.0 mi North - - N/A   Clear
5:33 PM -3.3 °F -9.0 °F 76% 30.53 in 10.0 mi North - - N/A   Clear
5:53 PM -3.5 °F -9.4 °F 76% 30.53 in 10.0 mi North - - N/A   Clear
6:13 PM -4.0 °F -9.6 °F 77% 30.54 in 10.0 mi North - - N/A   Clear
6:33 PM -4.2 °F -9.8 °F 77% 30.54 in 10.0 mi North - - N/A   Clear
6:53 PM -4.4 °F -10.1 °F 76% 30.55 in 10.0 mi North - - N/A   Clear
7:13 PM -4.9 °F -10.3 °F 78% 30.56 in 10.0 mi North - - N/A   Clear
7:33 PM -6.2 °F -11.2 °F 79% 30.56 in 10.0 mi North - - N/A   Clear
7:54 PM -6.5 °F -11.6 °F 79% 30.57 in 10.0 mi North - - N/A   Clear
8:12 PM -6.9 °F -11.9 °F 79% 30.57 in 10.0 mi North - - N/A   Clear
8:33 PM -7.1 °F -11.9 °F 79% 30.58 in 10.0 mi North - - N/A   Clear
8:54 PM -8.0 °F -13.0 °F 79% 30.59 in 10.0 mi North - - N/A   Clear
9:13 PM -8.5 °F -13.0 °F 81% 30.59 in 10.0 mi North - - N/A   Clear
9:33 PM -8.9 °F -13.7 °F 79% 30.60 in 10.0 mi North - - N/A   Clear
9:53 PM -9.4 °F -14.3 °F 79% 30.60 in 10.0 mi North - - N/A   Clear
10:13 PM -9.6 °F -14.1 °F 81% 30.61 in 10.0 mi North - - N/A   Clear
10:33 PM -9.9 °F -14.3 °F 81% 30.61 in 10.0 mi North - - N/A   Clear
10:53 PM -10.8 °F -15.0 °F 82% 30.62 in 10.0 mi North - - N/A   Clear
11:13 PM -11.7 °F -16.2 °F 80% 30.62 in 10.0 mi North - - N/A   Clear
11:33 PM -11.9 °F -16.1 °F 82% 30.62 in 10.0 mi North - - N/A   Clear
11:53 PM -11.2 °F -15.3 °F 82% 30.63 in 10.0 mi North - - N/A   Clear